SCP
0 0 0 0 0 0 0 0 0 0 0 0 0 0 0 0 0 0 0 0 0 0 0 0 0 0 0 0 0 0 0 0 0 0 0 0 0 0 0 0 0 0 0 0
0 0 0 0 0 0 0 0 0 0 0 0 0 0 0 0 0 0 0 0 0 0 0 0 0 0 0 0 0 0 0 0 0 0 0 0 0 0 0 0 0 0 0 0
0 0 0 0 0 0 0 0 0 0 0 0 0 0 0 0 0 0 0 0 0 0 0 0 0 0 0 0 0 0 0 0 0 0 0 0 0 0 0 0 0 0 0 0
0 0 0 0 0 0 0 0 0 0 0 0 0 0 0 0 0 0 0 0 0 0 0 0 0 0 0 0 0 0 0 0 0 0 0 0 0 0 0 0 0 0 0 0
0 0 0 0 0 0 0 0 0 0 0 0 0 0 0 0 0 0 0 0 0 0 0 0 0 0 0 0 0 0 0 0 0 0 0 0 0 0 0 0 0 0 0 0
0 0 0 0 0 0 0 0 0 0 0 0 0 0 0 0 0 0 0 0 0 0 0 0 0 0 0 0 0 0 0 0 0 0 0 0 0 0 0 0 0 0 0 0
0 0 0 0 0 0 0 0 0 0 0 0 0 0 0 0 0 0 0 0 0 0 0 0 0 0 0 0 0 0 0 0 0 0 0 0 0 0 0 0 0 0 0 0
0 0 0 0 0 0 0 0 0 0 0 0 0 0 0 0 0 0 0 0 0 0 0 0 0 0 0 0 0 0 0 0 0 0 0 0 0 0 0 0 0 0 0 0
0 0 0 0 0 0 0 0 0 0 0 0 0 0 0 0 0 0 0 0 0 0 0 0 0 0 0 0 0 0 0 0 0 0 0 0 0 0 0 0 0 0 0 0
0 0 0 0 0 0 0 0 0 0 0 0 0 0 0 0 0 0 0 0 0 0 0 0 0 0 0 0 0 0 0 0 0 0 0 0 0 0 0 0 0 0 0 0
0 0 0 0 0 0 0 0 0 0 0 0 0 0 0 0 0 0 0 0 0 0 0 0 0 0 0 0 0 0 0 0 0 0 0 0 0 0 0 0 0 0 0 0
0 0 0 0 0 0 0 0 0 0 0 0 0 0 0 0 0 0 0 0 0 0 0 0 0 0 0 0 0 0 0 0 0 0 0 0 0 0 0 0 0 0 0 0
0 0 0 0 0 0 0 0 0 0 0 0 0 0 0 0 0 0 0 0 0 0 0 0 0 0 0 0 0 0 0 0 0 0 0 0 0 0 0 0 0 0 0 0
0 0 0 0 0 0 0 0 0 0 0 0 0 0 0 0 0 0 0 0 0 0 0 0 0 0 0 0 0 0 0 0 0 0 0 0 0 0 0 0 0 0 0 0
0 0 0 0 0 0 0 0 0 0 0 0 0 0 0 0 0 0 0 0 0 0 0 0 0 0 0 0 0 0 0 0 0 0 0 0 0 0 0 0 0 0 0 0
0 0 0 0 0 0 0 0 0 0 0 0 0 0 0 0 0 0 0 0 0 0 0 0 0 0 0 0 0 0 0 0 0 0 0 0 0 0 0 0 0 0 0 0
0 0 0 0 0 0 0 0 0 0 0 0 0 0 0 0 0 0 0 0 0 0 0 0 0 0 0 0 0 0 0 0 0 0 0 0 0 0 0 0 0 0 0 0
0 0 0 0 0 0 0 0 0 0 0 0 0 0 0 0 0 0 0 0 0 0 0 0 0 0 0 0 0 0 0 0 0 0 0 0 0 0 0 0 0 0 0 0
0 0 0 0 0 0 0 0 0 0 0 0 0 0 0 0 0 0 0 0 0 0 0 0 0 0 0 0 0 0 0 0 0 0 0 0 0 0 0 0 0 0 0 0
0 0 0 0 0 0 0 0 0 0 0 0 0 0 0 0 0 0 0 0 0 0 0 0 0 0 0 0 0 0 0 0 0 0 0 0 0 0 0 0 0 0 0 0
0 0 0 0 0 0 0 0 0 0 0 0 0 0 0 0 0 0 0 0 0 0 0 0 0 0 0 0 0 0 0 0 0 0 0 0 0 0 0 0 0 0 0 0
0 0 0 0 0 0 0 0 0 0 0 0 0 0 0 0 0 0 0 0 0 0 0 0 0 0 0 0 0 0 0 0 0 0 0 0 0 0 0 0 0 0 0 0
0 0 0 0 0 0 0 0 0 0 0 0 0 0 0 0 0 0 0 0 0 0 0 0 0 0 0 0 0 0 0 0 0 0 0 0 0 0 0 0 0 0 0 0
0 0 0 0 0 0 0 0 0 0 0 0 0 0 0 0 0 0 0 0 0 0 0 0 0 0 0 0 0 0 0 0 0 0 0 0 0 0 0 0 0 0 0 0
0 0 0 0 0 0 0 0 0 0 0 0 0 0 0 0 0 0 0 0 0 0 0 0 0 0 0 0 0 0 0 0 0 0 0 0 0 0 0 0 0 0 0 0
0 0 0 0 0 0 0 0 0 0 0 0 0 0 0 0 0 0 0 0 0 0 0 0 0 0 0 0 0 0 0 0 0 0 0 0 0 0 0 0 0 0 0 0
0 0 0 0 0 0 0 0 0 0 0 0 0 0 0 0 0 0 0 0 0 0 0 0 0 0 0 0 0 0 0 0 0 0 0 0 0 0 0 0 0 0 0 0
Wind_Speed
9 9 6 8 8 8 11 11 11 12 12 12 7 5 4 4 3 4 4 3 3 3 3 2 2 2 2 2 2 3 3 3 4 3 3 2 2 2 2 2 2 2 1 1
8 8 8 12 12 12 13 13 14 15 16 9 5 3 3 3 3 4 5 4 4 5 4 3 3 3 3 3 3 3 3 3 4 3 3 3 3 2 2 2 2 2 2 2
7 4 6 13 13 14 11 11 10 14 13 5 5 4 4 4 4 5 5 5 5 5 4 4 3 3 3 3 3 3 3 3 4 3 3 3 3 3 3 3 2 2 2 2
5 3 12 10 2 7 9 10 9 8 6 4 5 4 4 3 3 5 5 6 6 5 4 3 3 3 3 3 3 3 3 3 4 4 4 4 3 3 3 3 3 3 3 3
4 7 12 6 3 4 6 8 7 8 8 5 3 3 3 1 2 4 5 5 5 4 3 2 2 2 2 2 3 3 3 3 4 4 4 4 4 4 3 3 3 3 3 3
5 6 9 6 2 1 1 6 3 3 5 3 2 3 4 3 3 4 4 4 3 2 1 1 1 1 1 2 3 3 4 4 4 4 4 4 4 4 4 4 4 4 4 3
8 9 10 3 2 3 4 7 1 1 2 2 3 5 4 4 4 3 4 4 3 2 2 2 1 1 2 3 3 4 4 4 4 4 4 4 4 4 4 4 4 4 4 4
7 9 11 3 4 6 5 1 1 1 1 2 4 4 3 3 4 3 4 3 3 2 3 2 1 1 3 4 4 3 4 4 4 4 4 4 4 4 4 4 4 4 4 5
8 9 2 4 4 3 1 1 2 1 2 2 3 4 4 3 4 3 3 3 2 2 3 3 2 2 3 4 3 3 3 4 4 4 4 3 3 4 3 3 3 4 4 4
6 7 4 3 3 2 2 3 2 2 3 2 4 4 4 4 4 3 3 3 3 2 3 4 3 3 3 4 3 3 4 4 3 3 3 3 3 3 3 3 3 4 4 4
6 6 4 3 3 3 2 2 2 2 3 3 3 4 4 4 4 3 3 3 2 2 3 4 4 4 4 3 3 3 4 3 3 3 3 3 3 3 3 3 4 4 4 4
8 5 4 3 1 1 2 2 2 3 3 3 3 4 4 4 4 3 3 3 3 3 4 4 4 4 4 3 3 3 3 3 3 3 3 3 3 3 5 6 7 8 7 6
4 2 2 3 3 2 2 3 2 3 3 4 3 3 3 3 3 3 3 3 3 4 4 4 4 4 4 3 3 3 4 3 3 3 2 3 3 3 4 5 7 8 8 8
2 1 2 2 2 2 2 2 2 2 3 3 3 2 2 3 3 3 4 3 3 3 3 3 3 4 4 3 3 4 4 4 4 2 2 2 3 3 3 3 4 4 6 8
1 2 3 2 2 3 2 2 2 3 2 3 2 2 2 3 3 4 4 3 3 3 3 3 3 5 4 3 3 4 4 3 3 2 2 2 2 3 3 3 3 4 4 5
1 1 1 2 3 3 2 2 2 3 3 3 2 3 3 3 3 3 3 2 2 3 3 3 4 4 3 3 3 3 3 5 4 3 2 2 2 2 2 3 3 3 3 4
1 2 2 3 3 3 3 3 3 3 3 3 3 3 2 2 2 2 2 2 2 3 3 3 4 4 3 3 3 3 3 3 5 3 2 2 2 2 2 2 3 3 3 4
3 4 4 4 3 3 3 3 2 2 3 3 2 1 2 2 2 3 3 3 3 3 3 3 3 3 3 3 2 2 2 2 2 2 2 2 2 2 2 3 3 3 3 4
1 2 2 2 2 2 2 2 2 2 2 1 1 2 2 2 2 2 2 2 2 3 3 2 5 3 3 3 3 2 2 2 2 2 2 4 3 2 2 3 3 3 3 3
1 1 1 1 1 1 1 1 1 1 1 1 1 1 2 2 2 2 2 2 2 3 3 3 3 2 2 3 4 2 2 2 2 2 2 2 2 2 2 3 3 3 3 3
1 1 1 1 1 1 1 1 1 1 1 1 1 2 2 2 2 1 2 3 3 3 3 4 2 2 2 3 4 1 1 2 2 2 2 2 3 3 3 3 3 3 3 3
1 1 1 1 1 1 1 1 1 1 1 1 1 1 1 2 2 2 2 2 3 5 3 2 2 4 4 4 1 1 1 2 2 2 2 2 2 3 3 3 3 3 3 3
1 1 1 1 1 1 1 1 1 1 1 1 1 1 2 2 2 2 3 2 2 5 3 2 5 7 6 3 1 1 2 2 2 2 2 2 2 3 3 3 3 3 3 3
1 1 1 1 1 1 1 1 1 1 1 1 1 1 2 2 2 1 2 4 6 6 3 5 7 7 6 2 2 2 2 2 2 2 3 3 3 3 3 3 3 3 3 4
1 1 0 0 0 1 1 1 1 1 1 1 1 2 1 1 2 2 2 3 5 6 3 5 7 7 4 2 2 2 2 3 3 3 2 3 3 3 3 3 3 4 4 4
0 0 0 0 0 1 1 1 1 1 1 1 2 2 2 1 2 2 2 2 3 5 4 3 3 4 2 2 2 3 3 3 4 3 3 3 4 4 4 4 5 4 4 4
1 0 0 1 1 1 1 1 1 1 1 1 2 2 2 2 2 2 3 3 3 3 3 3 3 3 3 3 3 3 3 3 3 3 3 3 4 4 4 5 4 4 4 4
Wind_Direction
260 272 259 243 236 216 217 229 241 257 259 270 273 274 285 289 303 307 305 306 305 295 290 296 304 305 305 308 319 321 321 315 309 313 312 310 308 310 310 305 291 276 260 246
266 256 257 260 245 231 233 238 248 262 269 271 283 297 302 306 303 298 294 294 298 301 300 295 295 298 300 302 310 312 307 305 313 321 323 322 317 312 307 295 292 289 275 261
264 264 283 259 234 222 227 225 225 244 255 275 287 284 280 283 289 288 296 297 292 285 281 282 280 287 281 287 302 302 303 312 317 318 321 324 323 322 313 303 293 285 276 265
266 281 249 246 203 201 220 238 231 244 263 270 267 273 268 269 286 297 301 299 294 289 287 286 286 294 295 297 292 293 299 307 315 318 316 318 319 314 312 310 299 287 282 274
234 252 267 259 216 189 211 257 235 235 256 274 302 311 280 296 307 287 288 292 288 280 274 276 277 286 293 295 296 295 295 299 305 307 308 310 306 303 305 301 293 285 279 269
228 242 251 251 201 163 115 271 266 220 247 267 325 282 271 331 331 316 306 303 303 309 315 298 290 289 282 287 289 286 288 292 297 298 295 294 294 296 297 292 285 283 281 270
231 245 260 247 195 136 193 252 305 196 239 233 229 237 275 317 324 320 317 320 328 333 317 292 294 290 272 275 271 280 290 292 293 294 290 288 291 294 292 290 291 287 284 277
210 231 248 169 147 189 220 285 2 328 269 251 258 279 300 315 317 321 324 326 334 329 313 311 304 285 280 274 282 295 295 292 291 290 288 291 290 291 291 290 289 287 283 276
208 224 238 163 190 214 170 246 279 287 277 260 272 281 295 302 304 302 302 307 310 303 303 309 304 284 279 288 299 295 290 288 290 289 286 286 282 283 283 278 275 277 280 279
251 257 249 221 225 247 237 241 268 273 274 264 261 273 284 287 289 289 294 297 302 304 303 304 305 296 286 297 298 289 285 289 292 290 291 290 285 278 274 271 271 272 273 280
253 268 282 253 231 239 260 266 273 281 269 258 260 274 276 282 282 279 292 298 298 289 290 294 304 304 306 307 301 292 287 285 288 287 286 285 282 275 278 271 274 276 269 265
236 225 212 241 238 261 258 266 268 274 285 277 257 265 278 282 282 284 291 300 303 299 297 300 304 302 306 304 293 287 288 285 283 283 282 281 284 294 293 293 297 293 285 277
231 249 241 261 273 271 265 276 276 264 263 274 272 263 271 280 286 288 291 292 287 288 292 298 301 301 304 307 300 289 284 286 284 280 281 285 287 290 301 307 305 307 304 297
212 214 265 265 268 287 284 281 279 277 272 264 268 275 272 278 286 285 280 280 282 285 290 295 299 299 304 303 299 295 291 289 291 283 281 282 284 287 291 301 311 312 313 311
235 214 228 260 285 287 286 288 291 288 290 292 281 273 270 273 278 281 282 288 296 294 295 299 299 301 311 304 298 295 292 289 289 290 288 288 293 296 297 298 303 309 318 319
287 287 249 254 262 278 286 279 274 280 286 289 289 282 277 272 278 286 287 282 283 289 293 298 296 302 313 308 301 298 296 300 307 306 303 305 305 302 303 305 309 313 314 313
209 254 255 264 269 279 272 261 257 267 274 278 281 288 293 295 301 300 302 296 285 285 288 287 291 302 305 302 294 298 303 303 307 312 310 306 303 301 302 302 304 306 306 312
227 238 239 243 247 261 276 273 265 266 267 271 279 289 290 280 279 290 301 310 315 310 297 286 289 299 304 303 296 297 302 304 305 305 309 307 308 306 306 305 305 308 316 320
276 268 265 256 242 240 256 270 272 264 266 268 269 272 275 276 278 285 300 312 311 307 310 307 316 332 316 306 314 300 302 306 312 310 308 307 314 315 311 307 308 310 314 318
318 308 288 284 272 234 251 267 274 282 279 261 267 288 296 296 294 294 301 297 283 278 288 304 311 306 301 299 312 303 300 303 308 312 316 312 308 311 309 306 305 306 309 310
306 305 304 310 314 314 272 252 251 275 285 258 246 264 279 294 299 295 299 305 311 313 311 322 330 306 299 303 310 315 305 303 304 303 307 309 310 309 309 309 306 305 307 311
304 303 304 311 321 328 335 330 264 263 282 278 265 267 287 303 309 307 280 269 294 315 329 317 307 303 312 323 330 322 310 304 299 298 297 297 299 303 306 308 307 306 307 309
309 311 314 319 311 322 338 332 289 261 261 267 270 270 273 283 291 294 302 299 302 313 326 309 310 317 331 352 341 318 306 301 298 292 287 286 288 288 291 295 296 301 302 302
337 336 324 344 28 13 329 321 315 301 288 292 285 265 261 290 302 286 278 305 316 319 323 316 322 327 341 356 330 315 305 298 290 283 280 278 278 279 281 285 289 292 293 294
325 322 356 27 337 293 293 324 341 329 320 316 314 307 290 273 275 294 302 304 311 322 323 320 325 331 342 323 310 302 297 286 281 283 281 286 285 284 283 282 282 284 285 286
334 334 308 289 292 307 318 322 318 316 325 325 326 329 324 313 300 298 300 302 303 317 323 316 314 318 314 304 299 296 292 297 305 302 288 284 281 280 281 282 282 280 279 280
6 4 355 350 350 343 335 320 308 309 311 304 311 314 314 315 316 317 315 312 312 311 308 306 306 303 302 301 297 292 289 287 284 283 282 278 276 275 275 275 276 277 278 279